M I D A S
Marine Information and Data Acquisition System
Tripno 1791 of the Zeeleeuw from 2009-09-28 09:58:56 to 2009-09-28 15:36:03
Back to CruiseResearch ActivitiesStationsMapUnderway DataData graphs

EquipmentUnitsComments
TimeDGPSUTC
LatitudeDGPSDM.mWGS84
LongitudeDGPSDM.mWGS84
SpeedMeteo Stationm/sRelative wind speed
DirectionMeteo StationdegRelative wind direction
TemperatureMeteo Stationdeg CelciusAir temperature
PressureMeteo StationPaAtmospheric pressure
HumidityMeteo Station%Relative humidity
Missing or incorrect values are displayed as -999
Metereological data collected by the RV Zeeleeuw from 2009-09-28 09:57:43 to 2009-09-28 15:41:13
                                                                                    Next 1000 lines
Time Latitude Longitude Speed Direction Temperature Pressure Humidity
2009-09-28 09:57:53 51°13.663 2°55.959 5.2 23 16.6 102590 42
2009-09-28 09:57:58 51°13.664 2°55.957 5.3 59 16.6 102590 42
2009-09-28 09:58:03 51°13.664 2°55.955 5.3 28 16.6 102580 42
2009-09-28 09:58:08 51°13.665 2°55.953 4.2 58 16.6 102580 42
2009-09-28 09:58:13 51°13.665 2°55.951 5.2 20 16.6 102590 47
2009-09-28 09:58:18 51°13.666 2°55.948 3.3 57 16.6 102590 47
2009-09-28 09:58:23 51°13.667 2°55.945 4.2 22 16.6 102590 42
2009-09-28 09:58:29 51°13.668 2°55.94 4.5 59 16.6 102590 42
2009-09-28 09:58:35 51°13.67 2°55.935 4.6 25 16.6 102590 42
2009-09-28 09:58:41 51°13.671 2°55.929 3.8 54 16.6 102590 42
2009-09-28 09:58:46 51°13.673 2°55.924 3.2 23 16.7 102590 47
2009-09-28 09:58:52 51°13.674 2°55.918 3.5 56 16.7 102590 47
2009-09-28 09:58:56 51°13.675 2°55.914 3.7 22 16.7 102590 48
2009-09-28 09:59:02 51°13.677 2°55.908 5.1 57 16.7 102590 48
2009-09-28 09:59:07 51°13.679 2°55.902 4.6 25 16.7 102590 43
2009-09-28 09:59:12 51°13.68 2°55.897 4.2 50 16.7 102590 43
2009-09-28 09:59:16 51°13.681 2°55.892 4.5 25 16.8 102590 48
2009-09-28 09:59:22 51°13.683 2°55.886 5.5 51 16.8 102590 48
2009-09-28 09:59:27 51°13.684 2°55.88 3.7 22 16.8 102590 48
2009-09-28 09:59:32 51°13.685 2°55.874 4.9 51 16.8 102590 48
2009-09-28 09:59:36 51°13.686 2°55.87 5.2 21 16.8 102580 48
2009-09-28 09:59:42 51°13.688 2°55.863 4.6 57 16.8 102580 48
2009-09-28 09:59:46 51°13.689 2°55.859 6.7 27 16.8 102580 42
2009-09-28 09:59:52 51°13.69 2°55.853 6.5 52 16.8 102580 42
2009-09-28 09:59:56 51°13.691 2°55.848 7 28 16.8 102590 47
2009-09-28 10:00:02 51°13.692 2°55.841 5.9 56 16.8 102590 47
2009-09-28 10:00:07 51°13.693 2°55.836 5.2 25 16.8 102580 43
2009-09-28 10:00:12 51°13.694 2°55.83 4.8 57 16.8 102580 43
2009-09-28 10:00:16 51°13.695 2°55.826 4.8 25 16.7 102580 41
2009-09-28 10:00:22 51°13.696 2°55.819 5.8 55 16.7 102580 41
2009-09-28 10:00:27 51°13.697 2°55.814 4.9 20 16.7 102580 47
2009-09-28 10:00:31 51°13.697 2°55.81 5.3 56 16.7 102580 47
2009-09-28 10:00:37 51°13.698 2°55.804 4.9 24 16.7 102580 46
2009-09-28 10:00:42 51°13.699 2°55.799 8.5 58 16.7 102580 46
2009-09-28 10:00:47 51°13.7 2°55.795 5.9 23 16.7 102580 42
2009-09-28 10:00:51 51°13.7 2°55.792 5.9 52 16.7 102580 42
2009-09-28 10:00:56 51°13.701 2°55.789 4 20 16.7 102580 45
2009-09-28 10:01:01 51°13.701 2°55.787 6.9 57 16.7 102580 45
2009-09-28 10:01:06 51°13.701 2°55.787 6 27 16.6 102590 42
2009-09-28 10:01:11 51°13.702 2°55.786 4.4 53 16.6 102590 42
2009-09-28 10:01:16 51°13.703 2°55.787 4.5 268 16.6 102580 45
2009-09-28 10:01:20 51°13.703 2°55.788 4.5 301 16.6 102580 45
2009-09-28 10:01:25 51°13.704 2°55.79 4.6 266 16.6 102590 47
2009-09-28 10:01:30 51°13.705 2°55.792 3 309 16.6 102590 47
2009-09-28 10:01:35 51°13.706 2°55.794 3.9 269 16.6 102580 43
2009-09-28 10:01:40 51°13.706 2°55.796 5.9 302 16.6 102580 43
2009-09-28 10:01:45 51°13.707 2°55.797 5.8 260 16.6 102580 43
2009-09-28 10:01:50 51°13.707 2°55.798 4.1 307 16.6 102580 43
2009-09-28 10:01:55 51°13.708 2°55.798 4.6 262 16.6 102570 44
2009-09-28 10:02:00 51°13.707 2°55.798 6.3 307 16.6 102570 44
2009-09-28 10:02:04 51°13.707 2°55.797 7.1 256 16.6 102570 48
2009-09-28 10:02:09 51°13.706 2°55.796 5 303 16.6 102570 48
2009-09-28 10:02:14 51°13.705 2°55.795 4.2 263 16.6 102580 47
2009-09-28 10:02:19 51°13.703 2°55.793 5.9 303 16.6 102580 47
2009-09-28 10:02:24 51°13.702 2°55.791 4 265 16.6 102570 41
2009-09-28 10:02:29 51°13.701 2°55.79 3 304 16.6 102570 41
2009-09-28 10:02:34 51°13.7 2°55.789 4.8 261 16.6 102570 43
2009-09-28 10:02:40 51°13.7 2°55.788 5.2 303 16.6 102570 43
2009-09-28 10:02:45 51°13.7 2°55.788 5.5 252 16.6 102570 47
2009-09-28 10:02:51 51°13.702 2°55.789 4.3 310 16.6 102570 47
2009-09-28 10:02:56 51°13.704 2°55.79 5.1 25 16.6 102570 41
2009-09-28 10:03:01 51°13.706 2°55.79 5.6 301 16.6 102570 41
2009-09-28 10:03:06 51°13.707 2°55.79 3.9 23 16.6 102570 45
2009-09-28 10:03:11 51°13.709 2°55.79 5.8 307 16.6 102570 45
2009-09-28 10:03:16 51°13.711 2°55.79 5.3 22 16.6 102570 48
2009-09-28 10:03:21 51°13.711 2°55.79 5.1 303 16.6 102570 48
2009-09-28 10:03:26 51°13.711 2°55.79 5 29 16.7 102560 41
2009-09-28 10:03:31 51°13.711 2°55.791 4.9 301 16.7 102560 41
2009-09-28 10:03:35 51°13.71 2°55.791 5.2 22 16.7 102570 48
2009-09-28 10:03:40 51°13.709 2°55.792 4 302 16.7 102570 48
2009-09-28 10:03:45 51°13.708 2°55.793 3.1 26 16.7 102570 47
2009-09-28 10:03:50 51°13.706 2°55.793 3.6 301 16.7 102570 47
2009-09-28 10:03:55 51°13.705 2°55.794 3 243 16.7 102560 41
2009-09-28 10:04:00 51°13.704 2°55.794 2.8 304 16.7 102560 41
2009-09-28 10:04:06 51°13.703 2°55.794 3 24 16.7 102570 47
2009-09-28 10:04:12 51°13.704 2°55.793 3.7 309 16.7 102570 47
2009-09-28 10:04:16 51°13.704 2°55.792 3.2 26 16.7 102570 42
2009-09-28 10:04:22 51°13.706 2°55.791 3.4 325 16.7 102570 42
2009-09-28 10:04:26 51°13.707 2°55.79 3.8 319 16.7 102560 48
2009-09-28 10:04:31 51°13.709 2°55.788 5.1 302 16.7 102560 48
2009-09-28 10:04:36 51°13.711 2°55.785 4.6 315 16.7 102560 44
2009-09-28 10:04:41 51°13.713 2°55.782 3.5 330 16.7 102560 44
2009-09-28 10:04:45 51°13.714 2°55.779 4.2 328 16.7 102560 44
2009-09-28 10:04:51 51°13.717 2°55.775 4.6 327 16.7 102560 44
2009-09-28 10:04:56 51°13.72 2°55.77 4.7 325 16.7 102560 41
2009-09-28 10:05:00 51°13.722 2°55.767 5.1 327 16.7 102560 41
2009-09-28 10:05:05 51°13.725 2°55.761 6.2 323 16.7 102560 45
2009-09-28 10:05:10 51°13.728 2°55.756 6.9 309 16.7 102560 45
2009-09-28 10:05:15 51°13.732 2°55.75 6.4 318 16.7 102560 45
2009-09-28 10:05:20 51°13.735 2°55.744 7.9 306 16.7 102560 45
2009-09-28 10:05:24 51°13.738 2°55.739 5.7 320 16.7 102560 47
2009-09-28 10:05:29 51°13.742 2°55.732 6.3 301 16.7 102560 47
2009-09-28 10:05:34 51°13.746 2°55.725 6.7 319 16.7 102560 42
2009-09-28 10:05:39 51°13.751 2°55.719 4.3 305 16.7 102560 42
2009-09-28 10:05:44 51°13.755 2°55.712 4.6 318 16.7 102560 44
2009-09-28 10:05:49 51°13.76 2°55.705 4.8 301 16.7 102560 44
2009-09-28 10:05:53 51°13.764 2°55.7 4.1 325 16.7 102560 47
2009-09-28 10:05:58 51°13.769 2°55.693 5.2 321 16.7 102560 47
2009-09-28 10:06:03 51°13.774 2°55.687 5.1 21 16.7 102560 47
2009-09-28 10:06:08 51°13.78 2°55.681 8.1 325 16.7 102560 47
2009-09-28 10:06:13 51°13.787 2°55.675 6.7 324 16.7 102560 48
2009-09-28 10:06:18 51°13.793 2°55.669 7.3 303 16.7 102560 48
2009-09-28 10:06:23 51°13.8 2°55.663 5.9 321 16.7 102560 47
2009-09-28 10:06:28 51°13.806 2°55.657 6.5 301 16.7 102560 47
2009-09-28 10:06:33 51°13.813 2°55.651 7.3 318 16.7 102560 45
2009-09-28 10:06:38 51°13.821 2°55.644 8 304 16.7 102560 45
2009-09-28 10:06:43 51°13.828 2°55.638 6.6 25 16.7 102560 44
2009-09-28 10:06:48 51°13.836 2°55.632 6.2 303 16.7 102560 44
2009-09-28 10:06:53 51°13.843 2°55.626 6 319 16.7 102550 42
2009-09-28 10:06:58 51°13.851 2°55.62 5.5 329 16.7 102550 42
2009-09-28 10:07:03 51°13.859 2°55.614 4.3 326 16.6 102550 46
2009-09-28 10:07:08 51°13.867 2°55.608 2.6 336 16.6 102550 46
2009-09-28 10:07:13 51°13.875 2°55.602 4.8 321 16.6 102560 47
2009-09-28 10:07:18 51°13.883 2°55.597 4.8 301 16.6 102560 47
2009-09-28 10:07:23 51°13.891 2°55.591 6 327 16.7 102550 47
2009-09-28 10:07:28 51°13.9 2°55.585 7.1 304 16.7 102550 47
2009-09-28 10:07:33 51°13.908 2°55.579 7.1 316 16.7 102560 43
2009-09-28 10:07:38 51°13.916 2°55.574 5.3 309 16.7 102560 43
2009-09-28 10:07:43 51°13.924 2°55.568 2.6 23 16.7 102560 43
2009-09-28 10:07:48 51°13.933 2°55.562 3.6 306 16.7 102560 43
2009-09-28 10:07:52 51°13.939 2°55.557 5.9 321 16.7 102550 45
2009-09-28 10:07:58 51°13.95 2°55.55 3.9 304 16.7 102550 45
2009-09-28 10:08:03 51°13.958 2°55.545 6.2 321 16.7 102560 46
2009-09-28 10:08:08 51°13.967 2°55.539 5.6 304 16.7 102560 46
2009-09-28 10:08:13 51°13.975 2°55.533 6.4 321 16.7 102550 47
2009-09-28 10:08:18 51°13.983 2°55.527 4.8 306 16.7 102550 47
2009-09-28 10:08:23 51°13.992 2°55.521 4.7 316 16.7 102560 45
2009-09-28 10:08:28 51°14 2°55.515 6.1 323 16.7 102560 45
2009-09-28 10:08:33 51°14.008 2°55.509 6.7 321 16.7 102550 42
2009-09-28 10:08:38 51°14.017 2°55.503 5.4 301 16.7 102550 42
2009-09-28 10:08:43 51°14.025 2°55.497 6.4 321 16.7 102550 48
2009-09-28 10:08:48 51°14.033 2°55.491 5.6 306 16.7 102550 48
2009-09-28 10:08:53 51°14.041 2°55.485 5.6 323 16.7 102550 42
2009-09-28 10:08:58 51°14.05 2°55.478 7.3 302 16.7 102550 42
2009-09-28 10:09:03 51°14.058 2°55.472 8.3 316 16.7 102550 43
2009-09-28 10:09:08 51°14.067 2°55.466 7.3 304 16.7 102550 43
2009-09-28 10:09:13 51°14.075 2°55.46 8.9 29 16.7 102540 45
2009-09-28 10:09:18 51°14.083 2°55.454 7.8 304 16.7 102540 45
2009-09-28 10:09:23 51°14.092 2°55.448 8.9 316 16.7 102540 42
2009-09-28 10:09:28 51°14.1 2°55.441 7.5 304 16.7 102540 42
2009-09-28 10:09:33 51°14.109 2°55.435 8.3 317 16.7 102540 45
2009-09-28 10:09:38 51°14.118 2°55.428 9.2 310 16.7 102540 45
2009-09-28 10:09:43 51°14.126 2°55.421 9.5 318 16.7 102540 43
2009-09-28 10:09:48 51°14.135 2°55.414 8.9 303 16.7 102540 43
2009-09-28 10:09:52 51°14.142 2°55.408 8.4 320 16.7 102540 47
2009-09-28 10:09:58 51°14.153 2°55.398 10 309 16.7 102540 47
2009-09-28 10:10:03 51°14.161 2°55.389 8.5 317 16.7 102530 47
2009-09-28 10:10:08 51°14.169 2°55.38 8 310 16.7 102530 47
2009-09-28 10:10:13 51°14.178 2°55.37 8.4 321 16.6 102530 42
2009-09-28 10:10:18 51°14.185 2°55.36 9.2 305 16.6 102530 42
2009-09-28 10:10:23 51°14.193 2°55.35 9 319 16.6 102530 45
2009-09-28 10:10:28 51°14.201 2°55.34 9.5 305 16.6 102530 45
2009-09-28 10:10:33 51°14.209 2°55.328 9.5 319 16.6 102530 46
2009-09-28 10:10:38 51°14.217 2°55.318 9.4 304 16.6 102530 46
2009-09-28 10:10:43 51°14.225 2°55.306 7.7 323 16.6 102530 43
2009-09-28 10:10:48 51°14.232 2°55.295 9.7 306 16.6 102530 43
2009-09-28 10:10:53 51°14.241 2°55.283 11.2 318 16.6 102530 44
2009-09-28 10:10:58 51°14.248 2°55.271 8.9 307 16.6 102530 44
2009-09-28 10:11:03 51°14.256 2°55.258 10 317 16.6 102530 47
2009-09-28 10:11:08 51°14.264 2°55.245 9.9 310 16.6 102530 47
2009-09-28 10:11:13 51°14.272 2°55.233 9.9 23 16.6 102530 46
2009-09-28 10:11:18 51°14.28 2°55.22 9 308 16.6 102530 46
2009-09-28 10:11:23 51°14.288 2°55.206 10.1 317 16.5 102530 44
2009-09-28 10:11:28 51°14.295 2°55.193 8.6 306 16.5 102530 44
2009-09-28 10:11:33 51°14.303 2°55.179 7.8 321 16.5 102530 46
2009-09-28 10:11:38 51°14.31 2°55.165 9.9 306 16.5 102530 46
2009-09-28 10:11:43 51°14.317 2°55.151 8.5 319 16.5 102530 42
2009-09-28 10:11:48 51°14.325 2°55.137 8.7 307 16.5 102530 42
2009-09-28 10:11:53 51°14.332 2°55.123 10.4 318 16.4 102530 46
2009-09-28 10:11:58 51°14.34 2°55.109 8.6 305 16.4 102530 46
2009-09-28 10:12:03 51°14.347 2°55.096 8.6 317 16.4 102520 46
2009-09-28 10:12:08 51°14.355 2°55.082 9.6 304 16.4 102520 46
2009-09-28 10:12:13 51°14.363 2°55.068 8.9 318 16.4 102530 46
2009-09-28 10:12:18 51°14.371 2°55.055 9.8 308 16.4 102530 46
2009-09-28 10:12:23 51°14.379 2°55.041 9.5 318 16.4 102520 42
2009-09-28 10:12:28 51°14.387 2°55.028 7.9 306 16.4 102520 42
2009-09-28 10:12:33 51°14.396 2°55.015 9.2 318 16.4 102520 46
2009-09-28 10:12:38 51°14.405 2°55.002 8 301 16.4 102520 46
2009-09-28 10:12:43 51°14.414 2°54.989 9.1 315 16.4 102520 43
2009-09-28 10:12:48 51°14.423 2°54.977 9.2 301 16.4 102520 43
2009-09-28 10:12:53 51°14.433 2°54.965 9.3 29 16.4 102520 47
2009-09-28 10:12:58 51°14.443 2°54.953 9.2 308 16.4 102520 47
2009-09-28 10:13:03 51°14.454 2°54.942 11.4 21 16.4 102520 43
2009-09-28 10:13:08 51°14.465 2°54.931 10.7 284 16.4 102520 43
2009-09-28 10:13:13 51°14.476 2°54.92 8.8 317 16.4 102520 47
2009-09-28 10:13:18 51°14.488 2°54.909 10.7 301 16.4 102520 47
2009-09-28 10:13:23 51°14.499 2°54.898 11.2 317 16.4 102520 45
2009-09-28 10:13:28 51°14.511 2°54.886 9.8 306 16.4 102520 45
2009-09-28 10:13:33 51°14.523 2°54.875 11.3 317 16.3 102520 44
2009-09-28 10:13:38 51°14.535 2°54.864 10.8 306 16.3 102520 44
2009-09-28 10:13:43 51°14.547 2°54.854 11 21 16.3 102510 44
2009-09-28 10:13:48 51°14.559 2°54.843 9.6 307 16.3 102510 44
2009-09-28 10:13:53 51°14.572 2°54.834 8.2 23 16.3 102520 43
2009-09-28 10:13:58 51°14.584 2°54.823 11.1 308 16.3 102520 43
2009-09-28 10:14:03 51°14.597 2°54.814 9.6 26 16.3 102520 46
2009-09-28 10:14:08 51°14.61 2°54.804 9.2 302 16.3 102520 46
2009-09-28 10:14:12 51°14.621 2°54.796 10.8 318 16.3 102520 46
2009-09-28 10:14:18 51°14.637 2°54.784 10.7 302 16.3 102520 46
2009-09-28 10:14:23 51°14.65 2°54.774 11.7 315 16.3 102520 43
2009-09-28 10:14:28 51°14.663 2°54.764 10 307 16.3 102520 43
2009-09-28 10:14:32 51°14.674 2°54.756 10.9 24 16.3 102520 46
2009-09-28 10:14:38 51°14.69 2°54.743 11.4 305 16.3 102520 46
2009-09-28 10:14:43 51°14.704 2°54.733 11.4 316 16.3 102520 45
2009-09-28 10:14:48 51°14.718 2°54.723 9.7 304 16.3 102520 45
2009-09-28 10:14:53 51°14.732 2°54.713 11.9 27 16.3 102510 43
2009-09-28 10:14:58 51°14.746 2°54.702 11.1 306 16.3 102510 43
2009-09-28 10:15:03 51°14.759 2°54.692 10.9 319 16.3 102520 43
2009-09-28 10:15:08 51°14.773 2°54.681 12 284 16.3 102520 43
2009-09-28 10:15:13 51°14.787 2°54.671 12.1 319 16.3 102520 46
2009-09-28 10:15:18 51°14.801 2°54.66 10.6 302 16.3 102520 46
2009-09-28 10:15:23 51°14.814 2°54.65 11.7 317 16.3 102520 45
2009-09-28 10:15:28 51°14.828 2°54.64 11.5 307 16.3 102520 45
2009-09-28 10:15:33 51°14.842 2°54.629 9.9 318 16.3 102520 46
2009-09-28 10:15:38 51°14.856 2°54.618 11.6 302 16.3 102520 46
2009-09-28 10:15:43 51°14.869 2°54.608 12.3 320 16.3 102520 46
2009-09-28 10:15:48 51°14.883 2°54.597 12.2 308 16.3 102520 46
2009-09-28 10:15:53 51°14.897 2°54.587 10.3 319 16.3 102520 45
2009-09-28 10:15:58 51°14.911 2°54.576 9.3 302 16.3 102520 45
2009-09-28 10:16:03 51°14.924 2°54.565 10.7 320 16.3 102520 44
2009-09-28 10:16:08 51°14.938 2°54.554 10 304 16.3 102520 44
2009-09-28 10:16:13 51°14.952 2°54.542 9.9 320 16.2 102520 44
2009-09-28 10:16:18 51°14.965 2°54.53 9.6 302 16.2 102520 44
2009-09-28 10:16:23 51°14.979 2°54.518 11.8 320 16.2 102530 44
2009-09-28 10:16:28 51°14.992 2°54.506 11.8 306 16.2 102530 44
2009-09-28 10:16:32 51°15.003 2°54.497 10.1 318 16.2 102530 45
2009-09-28 10:16:38 51°15.018 2°54.482 11.4 308 16.2 102530 45
2009-09-28 10:16:43 51°15.032 2°54.47 11.6 317 16.2 102520 46
2009-09-28 10:16:48 51°15.045 2°54.457 10 305 16.2 102520 46
2009-09-28 10:16:52 51°15.055 2°54.447 12.1 317 16.2 102530 45
2009-09-28 10:16:58 51°15.071 2°54.432 11.5 303 16.2 102530 45
2009-09-28 10:17:03 51°15.084 2°54.42 10.4 317 16.2 102520 46
2009-09-28 10:17:08 51°15.097 2°54.407 10.5 280 16.2 102520 46
2009-09-28 10:17:13 51°15.11 2°54.395 12 316 16.2 102520 46
2009-09-28 10:17:18 51°15.123 2°54.382 13.3 305 16.2 102520 46
2009-09-28 10:17:23 51°15.135 2°54.369 11.2 317 16.2 102520 45
2009-09-28 10:17:28 51°15.148 2°54.357 12.1 304 16.2 102520 45
2009-09-28 10:17:33 51°15.162 2°54.345 11.3 316 16.2 102520 44
2009-09-28 10:17:38 51°15.174 2°54.332 10.1 305 16.2 102520 44
2009-09-28 10:17:43 51°15.187 2°54.32 12.6 316 16.2 102530 46
2009-09-28 10:17:48 51°15.201 2°54.308 10.3 306 16.2 102530 46
2009-09-28 10:17:53 51°15.214 2°54.296 11.8 316 16.1 102520 43
2009-09-28 10:17:58 51°15.227 2°54.284 9.6 304 16.1 102520 43
2009-09-28 10:18:03 51°15.24 2°54.272 10.1 316 16.1 102530 44
2009-09-28 10:18:08 51°15.253 2°54.26 11.3 306 16.1 102530 44
2009-09-28 10:18:13 51°15.266 2°54.249 10.9 317 16.1 102520 46
2009-09-28 10:18:18 51°15.28 2°54.237 9.9 304 16.1 102520 46
2009-09-28 10:18:23 51°15.294 2°54.225 11.9 316 16.1 102520 44
2009-09-28 10:18:28 51°15.307 2°54.214 9.7 305 16.1 102520 44
2009-09-28 10:18:33 51°15.32 2°54.203 9.5 316 16.1 102520 44
2009-09-28 10:18:38 51°15.334 2°54.191 11.1 305 16.1 102520 44
2009-09-28 10:18:43 51°15.347 2°54.179 11.2 316 16.1 102520 43
2009-09-28 10:18:48 51°15.361 2°54.168 10.9 304 16.1 102520 43
2009-09-28 10:18:52 51°15.371 2°54.159 11.7 319 16.1 102520 46
2009-09-28 10:18:58 51°15.387 2°54.144 11.2 303 16.1 102520 46
2009-09-28 10:19:03 51°15.401 2°54.133 11.6 319 16.1 102520 45
2009-09-28 10:19:08 51°15.414 2°54.121 9.9 282 16.1 102520 45
2009-09-28 10:19:13 51°15.427 2°54.109 10.3 317 16.1 102530 46
2009-09-28 10:19:18 51°15.441 2°54.097 11.1 306 16.1 102530 46
2009-09-28 10:19:23 51°15.454 2°54.085 11.3 318 16.1 102530 46
2009-09-28 10:19:28 51°15.467 2°54.073 9.9 308 16.1 102530 46
2009-09-28 10:19:33 51°15.481 2°54.061 10.9 318 16.1 102520 44
2009-09-28 10:19:38 51°15.494 2°54.05 9.8 306 16.1 102520 44
2009-09-28 10:19:43 51°15.507 2°54.038 10.2 320 16.2 102520 46
2009-09-28 10:19:48 51°15.521 2°54.027 12.1 307 16.2 102520 46
2009-09-28 10:19:53 51°15.534 2°54.015 11.7 319 16.2 102520 43
2009-09-28 10:19:58 51°15.548 2°54.003 11 305 16.2 102520 43
2009-09-28 10:20:03 51°15.561 2°53.991 12.4 320 16.2 102530 45
2009-09-28 10:20:08 51°15.574 2°53.98 12.3 300 16.2 102530 45
2009-09-28 10:20:13 51°15.588 2°53.968 11.8 318 16.3 102520 43
2009-09-28 10:20:18 51°15.601 2°53.957 10.5 306 16.3 102520 43
2009-09-28 10:20:23 51°15.614 2°53.945 10.6 319 16.3 102520 45
2009-09-28 10:20:28 51°15.628 2°53.933 11.6 305 16.3 102520 45
2009-09-28 10:20:33 51°15.641 2°53.921 10.6 318 16.2 102510 43
2009-09-28 10:20:38 51°15.654 2°53.91 11.1 306 16.2 102510 43
2009-09-28 10:20:43 51°15.668 2°53.898 11 319 16.2 102520 46
2009-09-28 10:20:48 51°15.681 2°53.886 9.7 303 16.2 102520 46
2009-09-28 10:20:53 51°15.694 2°53.874 10 321 16.3 102510 44
2009-09-28 10:20:58 51°15.708 2°53.863 11.4 304 16.3 102510 44
2009-09-28 10:21:03 51°15.721 2°53.851 10.7 321 16.2 102520 46
2009-09-28 10:21:08 51°15.734 2°53.839 10.1 281 16.2 102520 46
2009-09-28 10:21:13 51°15.747 2°53.827 12.5 318 16.3 102520 46
2009-09-28 10:21:18 51°15.761 2°53.815 12.3 308 16.3 102520 46
2009-09-28 10:21:23 51°15.774 2°53.803 11.7 319 16.2 102520 45
2009-09-28 10:21:28 51°15.787 2°53.791 12.7 305 16.2 102520 45
2009-09-28 10:21:33 51°15.801 2°53.779 12 316 16.3 102520 43
2009-09-28 10:21:38 51°15.814 2°53.767 12.4 303 16.3 102520 43
2009-09-28 10:21:43 51°15.828 2°53.755 11.8 316 16.3 102510 45
2009-09-28 10:21:48 51°15.841 2°53.743 10.9 305 16.3 102510 45
2009-09-28 10:21:53 51°15.854 2°53.731 10.3 316 16.3 102510 43
2009-09-28 10:21:58 51°15.867 2°53.72 11.4 309 16.3 102510 43
2009-09-28 10:22:03 51°15.881 2°53.708 11.8 319 16.2 102510 43
2009-09-28 10:22:08 51°15.894 2°53.696 10.2 304 16.2 102510 43
2009-09-28 10:22:13 51°15.908 2°53.684 11.5 319 16.2 102510 43
2009-09-28 10:22:18 51°15.921 2°53.672 9.5 303 16.2 102510 43
2009-09-28 10:22:23 51°15.934 2°53.66 10.9 319 16.2 102510 46
2009-09-28 10:22:28 51°15.948 2°53.649 9.7 302 16.2 102510 46
2009-09-28 10:22:33 51°15.961 2°53.637 11.6 315 16.2 102510 46
2009-09-28 10:22:38 51°15.975 2°53.625 10.6 302 16.2 102510 46
2009-09-28 10:22:43 51°15.988 2°53.613 12.1 316 16.1 102510 43
2009-09-28 10:22:48 51°16.001 2°53.601 10.5 302 16.1 102510 43
2009-09-28 10:22:53 51°16.015 2°53.589 10.7 319 16.2 102520 45
2009-09-28 10:22:58 51°16.028 2°53.577 11 307 16.2 102520 45
2009-09-28 10:23:03 51°16.041 2°53.565 10.6 320 16.1 102510 44
2009-09-28 10:23:08 51°16.055 2°53.553 9.5 279 16.1 102510 44
2009-09-28 10:23:13 51°16.068 2°53.541 9.3 321 16.1 102510 46
2009-09-28 10:23:18 51°16.081 2°53.53 9.7 302 16.1 102510 46
2009-09-28 10:23:23 51°16.095 2°53.518 11 321 16.1 102520 46
2009-09-28 10:23:28 51°16.108 2°53.506 11.9 305 16.1 102520 46
2009-09-28 10:23:32 51°16.119 2°53.497 11.9 320 16.2 102520 46
2009-09-28 10:23:38 51°16.135 2°53.482 9.6 301 16.2 102520 46
2009-09-28 10:23:43 51°16.149 2°53.471 10.3 320 16.2 102510 44
2009-09-28 10:23:48 51°16.162 2°53.459 11.4 303 16.2 102510 44
2009-09-28 10:23:53 51°16.176 2°53.447 11 317 16.2 102520 46
2009-09-28 10:23:58 51°16.189 2°53.435 11.4 305 16.2 102520 46
2009-09-28 10:24:03 51°16.203 2°53.424 10.5 318 16.2 102510 45
2009-09-28 10:24:08 51°16.216 2°53.412 8.6 302 16.2 102510 45
2009-09-28 10:24:13 51°16.23 2°53.4 8.7 320 16.2 102510 45
2009-09-28 10:24:18 51°16.243 2°53.388 9.2 305 16.2 102510 45
2009-09-28 10:24:23 51°16.257 2°53.376 9.3 319 16.1 102500 42
2009-09-28 10:24:28 51°16.27 2°53.364 9.4 309 16.1 102500 42
2009-09-28 10:24:33 51°16.284 2°53.353 11.9 319 16.1 102520 43
2009-09-28 10:24:38 51°16.297 2°53.341 9.5 305 16.1 102520 43
2009-09-28 10:24:43 51°16.311 2°53.329 12.1 316 16.1 102520 42
2009-09-28 10:24:48 51°16.324 2°53.317 11.6 308 16.1 102520 42
2009-09-28 10:24:53 51°16.338 2°53.306 10.9 316 16.1 102520 43
2009-09-28 10:24:58 51°16.351 2°53.294 11.5 302 16.1 102520 43
2009-09-28 10:25:03 51°16.364 2°53.282 10.8 30 16.1 102510 45
2009-09-28 10:25:08 51°16.378 2°53.27 10.3 277 16.1 102510 45
2009-09-28 10:25:13 51°16.391 2°53.258 10.9 317 16.1 102520 45
2009-09-28 10:25:18 51°16.405 2°53.246 9.6 309 16.1 102520 45
2009-09-28 10:25:23 51°16.418 2°53.234 11.1 321 16.1 102520 42
2009-09-28 10:25:28 51°16.431 2°53.222 11.7 306 16.1 102520 42
2009-09-28 10:25:33 51°16.445 2°53.211 10.2 319 16.1 102520 42
2009-09-28 10:25:38 51°16.458 2°53.199 11.2 304 16.1 102520 42
2009-09-28 10:25:43 51°16.472 2°53.187 9.8 320 16.1 102510 46
2009-09-28 10:25:48 51°16.485 2°53.175 10.3 301 16.1 102510 46
2009-09-28 10:25:53 51°16.498 2°53.163 11.7 321 16.1 102510 45
2009-09-28 10:25:58 51°16.512 2°53.151 11.5 307 16.1 102510 45
2009-09-28 10:26:03 51°16.525 2°53.139 10.9 318 16.1 102510 45
2009-09-28 10:26:08 51°16.539 2°53.128 12.3 310 16.1 102510 45
2009-09-28 10:26:12 51°16.549 2°53.118 10.5 318 16.1 102510 46
2009-09-28 10:26:18 51°16.566 2°53.104 12.7 306 16.1 102510 46
2009-09-28 10:26:23 51°16.579 2°53.091 11.1 317 16.1 102520 43
2009-09-28 10:26:28 51°16.592 2°53.079 12.8 302 16.1 102520 43
2009-09-28 10:26:33 51°16.605 2°53.068 11.1 316 16.1 102510 46
2009-09-28 10:26:38 51°16.619 2°53.056 12.6 300 16.1 102510 46
2009-09-28 10:26:43 51°16.632 2°53.044 11.6 316 16.1 102510 42
2009-09-28 10:26:48 51°16.646 2°53.032 10.2 304 16.1 102510 42
2009-09-28 10:26:53 51°16.659 2°53.021 10.2 317 16.1 102510 42
2009-09-28 10:26:58 51°16.673 2°53.009 12.1 309 16.1 102510 42
2009-09-28 10:27:03 51°16.686 2°52.997 11.8 316 16.1 102510 45
2009-09-28 10:27:08 51°16.7 2°52.986 10.6 284 16.1 102510 45
2009-09-28 10:27:13 51°16.714 2°52.974 10.4 318 16.1 102510 45
2009-09-28 10:27:18 51°16.727 2°52.963 10.9 302 16.1 102510 45
2009-09-28 10:27:23 51°16.741 2°52.952 10.1 319 16.1 102510 43
2009-09-28 10:27:28 51°16.755 2°52.94 11.3 303 16.1 102510 43
2009-09-28 10:27:33 51°16.768 2°52.929 11.2 319 16.1 102510 43
2009-09-28 10:27:38 51°16.782 2°52.917 9.8 302 16.1 102510 43
2009-09-28 10:27:43 51°16.795 2°52.905 11 320 16.1 102510 46
2009-09-28 10:27:48 51°16.808 2°52.894 11.6 304 16.1 102510 46
2009-09-28 10:27:53 51°16.822 2°52.882 10.1 319 16 102520 45
2009-09-28 10:27:58 51°16.835 2°52.871 12 302 16 102520 45
2009-09-28 10:28:03 51°16.848 2°52.859 10.2 320 16 102520 42
2009-09-28 10:28:08 51°16.862 2°52.847 9.5 302 16 102520 42
2009-09-28 10:28:13 51°16.875 2°52.835 10.7 320 16 102520 44
2009-09-28 10:28:18 51°16.889 2°52.823 10.1 302 16 102520 44
2009-09-28 10:28:23 51°16.902 2°52.812 10 320 16 102520 45
2009-09-28 10:28:28 51°16.916 2°52.8 10 304 16 102520 45
2009-09-28 10:28:33 51°16.929 2°52.788 10 319 16 102520 42
2009-09-28 10:28:38 51°16.943 2°52.777 9.6 306 16 102520 42
2009-09-28 10:28:43 51°16.957 2°52.765 9.5 318 16 102520 46
2009-09-28 10:28:48 51°16.97 2°52.754 11.2 306 16 102520 46
2009-09-28 10:28:53 51°16.984 2°52.742 10.6 318 16 102520 45
2009-09-28 10:28:58 51°16.998 2°52.731 10.6 309 16 102520 45
2009-09-28 10:29:03 51°17.012 2°52.721 11.8 315 16.1 102520 45
2009-09-28 10:29:08 51°17.026 2°52.711 11.4 279 16.1 102520 45
2009-09-28 10:29:13 51°17.04 2°52.701 12.8 317 16.1 102520 43
2009-09-28 10:29:18 51°17.055 2°52.691 10 309 16.1 102520 43
2009-09-28 10:29:23 51°17.069 2°52.682 12.2 316 16.1 102520 46
2009-09-28 10:29:28 51°17.083 2°52.672 10.6 305 16.1 102520 46
2009-09-28 10:29:33 51°17.097 2°52.663 11.8 21 16.1 102520 45
2009-09-28 10:29:38 51°17.111 2°52.654 11.5 308 16.1 102520 45
2009-09-28 10:29:43 51°17.125 2°52.645 10.1 318 16.1 102500 43
2009-09-28 10:29:48 51°17.14 2°52.635 11.5 305 16.1 102500 43
2009-09-28 10:29:53 51°17.154 2°52.626 12.3 316 16.1 102520 45
2009-09-28 10:29:58 51°17.168 2°52.618 9.8 307 16.1 102520 45
2009-09-28 10:30:03 51°17.183 2°52.609 11.6 318 16.1 102520 44
2009-09-28 10:30:08 51°17.197 2°52.601 10.5 308 16.1 102520 44
2009-09-28 10:30:13 51°17.212 2°52.592 10.5 318 16.1 102520 44
2009-09-28 10:30:18 51°17.227 2°52.584 11.4 307 16.1 102520 44
2009-09-28 10:30:23 51°17.241 2°52.577 11 315 16.1 102520 42
2009-09-28 10:30:28 51°17.257 2°52.571 12 301 16.1 102520 42
2009-09-28 10:30:32 51°17.269 2°52.567 11.3 316 16.1 102530 45
2009-09-28 10:30:38 51°17.287 2°52.561 10.6 308 16.1 102530 45
2009-09-28 10:30:43 51°17.302 2°52.557 10.3 315 16.1 102530 41
2009-09-28 10:30:48 51°17.318 2°52.553 11 308 16.1 102530 41
2009-09-28 10:30:53 51°17.333 2°52.551 9.9 20 16.1 102530 45
2009-09-28 10:30:58 51°17.348 2°52.55 10.6 302 16.1 102530 45
2009-09-28 10:31:03 51°17.364 2°52.549 9.3 21 16.1 102530 44
2009-09-28 10:31:08 51°17.379 2°52.549 8.8 278 16.1 102530 44
2009-09-28 10:31:13 51°17.394 2°52.549 9.7 25 16 102530 43
2009-09-28 10:31:18 51°17.41 2°52.55 8.2 304 16 102530 43
2009-09-28 10:31:23 51°17.426 2°52.552 7.9 24 16 102540 45
2009-09-28 10:31:28 51°17.441 2°52.553 9.4 308 16 102540 45
2009-09-28 10:31:33 51°17.457 2°52.555 8.7 26 16 102540 46
2009-09-28 10:31:38 51°17.472 2°52.556 9.2 305 16 102540 46
2009-09-28 10:31:43 51°17.487 2°52.559 9.3 316 16 102540 46
2009-09-28 10:31:48 51°17.503 2°52.561 10.8 309 16 102540 46
2009-09-28 10:31:53 51°17.518 2°52.564 10.8 19 16 102550 42
2009-09-28 10:31:58 51°17.534 2°52.566 10.8 306 16 102550 42
2009-09-28 10:32:03 51°17.549 2°52.569 9.2 23 16 102530 43
2009-09-28 10:32:08 51°17.565 2°52.571 10.7 303 16 102530 43
2009-09-28 10:32:13 51°17.581 2°52.574 11.7 26 16 102530 44
2009-09-28 10:32:18 51°17.596 2°52.576 10.8 307 16 102530 44
2009-09-28 10:32:23 51°17.612 2°52.579 9.7 25 15.9 102540 45
2009-09-28 10:32:28 51°17.627 2°52.582 9.8 306 15.9 102540 45
2009-09-28 10:32:33 51°17.643 2°52.585 8.3 27 15.9 102540 43
2009-09-28 10:32:38 51°17.659 2°52.588 8.8 307 15.9 102540 43
2009-09-28 10:32:43 51°17.674 2°52.591 9.3 26 15.9 102540 42
2009-09-28 10:32:48 51°17.69 2°52.594 9.5 306 15.9 102540 42
2009-09-28 10:32:52 51°17.703 2°52.596 10.3 23 15.9 102530 46
2009-09-28 10:32:58 51°17.721 2°52.6 9.9 309 15.9 102530 46
2009-09-28 10:33:03 51°17.737 2°52.603 8.7 24 15.9 102530 42
2009-09-28 10:33:08 51°17.753 2°52.605 8.9 285 15.9 102530 42
2009-09-28 10:33:13 51°17.769 2°52.609 7.9 21 15.9 102530 45
2009-09-28 10:33:18 51°17.784 2°52.611 11 303 15.9 102530 45
2009-09-28 10:33:23 51°17.8 2°52.614 11.2 21 15.9 102530 41
2009-09-28 10:33:28 51°17.816 2°52.617 10 303 15.9 102530 41
2009-09-28 10:33:33 51°17.832 2°52.619 9.8 29 16 102530 44
2009-09-28 10:33:38 51°17.847 2°52.622 10.6 306 16 102530 44
2009-09-28 10:33:43 51°17.863 2°52.624 9.2 25 16 102530 45
2009-09-28 10:33:48 51°17.879 2°52.626 8.7 309 16 102530 45
2009-09-28 10:33:53 51°17.894 2°52.629 10.2 24 16 102530 46
2009-09-28 10:33:58 51°17.91 2°52.631 9 310 16 102530 46
2009-09-28 10:34:03 51°17.926 2°52.634 10.5 22 15.9 102530 46
2009-09-28 10:34:08 51°17.942 2°52.636 10 280 15.9 102530 46
2009-09-28 10:34:13 51°17.957 2°52.638 8.6 23 15.9 102520 42
2009-09-28 10:34:18 51°17.973 2°52.641 10.2 302 15.9 102520 42
2009-09-28 10:34:23 51°17.989 2°52.643 10.3 28 15.9 102530 43
2009-09-28 10:34:28 51°18.005 2°52.645 8.9 304 15.9 102530 43
2009-09-28 10:34:33 51°18.021 2°52.647 9.1 22 16 102530 46
2009-09-28 10:34:38 51°18.036 2°52.649 9.1 310 16 102530 46
2009-09-28 10:34:43 51°18.052 2°52.651 10.9 21 16 102520 42
2009-09-28 10:34:48 51°18.068 2°52.653 9.2 307 16 102520 42
2009-09-28 10:34:53 51°18.084 2°52.655 9.5 28 16 102520 45
2009-09-28 10:34:58 51°18.099 2°52.656 9.8 301 16 102520 45
2009-09-28 10:35:03 51°18.115 2°52.659 10.1 29 16 102520 42
2009-09-28 10:35:08 51°18.131 2°52.661 9.6 304 16 102520 42
2009-09-28 10:35:13 51°18.147 2°52.662 9.3 23 15.9 102520 45
2009-09-28 10:35:18 51°18.163 2°52.664 9.3 310 15.9 102520 45
2009-09-28 10:35:23 51°18.179 2°52.666 9.1 22 15.9 102510 45
2009-09-28 10:35:28 51°18.194 2°52.668 8.2 308 15.9 102510 45
2009-09-28 10:35:33 51°18.21 2°52.67 8.8 23 15.9 102520 45
2009-09-28 10:35:38 51°18.226 2°52.672 9.4 306 15.9 102520 45
2009-09-28 10:35:43 51°18.242 2°52.674 9.8 20 15.9 102520 46
2009-09-28 10:35:48 51°18.258 2°52.675 9.2 302 15.9 102520 46
2009-09-28 10:35:53 51°18.273 2°52.677 9.9 23 15.9 102520 46
2009-09-28 10:35:58 51°18.289 2°52.678 8.2 303 15.9 102520 46
2009-09-28 10:36:03 51°18.305 2°52.68 9.3 27 15.9 102520 44
2009-09-28 10:36:08 51°18.321 2°52.681 9.2 285 15.9 102520 44
2009-09-28 10:36:13 51°18.337 2°52.683 8.6 26 15.9 102520 43
2009-09-28 10:36:18 51°18.353 2°52.684 8.6 306 15.9 102520 43
2009-09-28 10:36:23 51°18.368 2°52.686 9.1 21 15.9 102520 42
2009-09-28 10:36:28 51°18.384 2°52.688 8.1 301 15.9 102520 42
2009-09-28 10:36:33 51°18.4 2°52.69 7.3 27 15.9 102520 45
2009-09-28 10:36:38 51°18.416 2°52.691 9.3 306 15.9 102520 45
2009-09-28 10:36:43 51°18.432 2°52.693 7.8 21 15.9 102520 43
2009-09-28 10:36:48 51°18.447 2°52.694 8 302 15.9 102520 43
2009-09-28 10:36:53 51°18.463 2°52.696 8.6 29 15.9 102520 45
2009-09-28 10:36:58 51°18.479 2°52.698 8.7 308 15.9 102520 45
2009-09-28 10:37:03 51°18.495 2°52.699 9.7 21 15.9 102520 45
2009-09-28 10:37:08 51°18.511 2°52.7 10.5 302 15.9 102520 45
2009-09-28 10:37:13 51°18.526 2°52.702 10.2 21 16 102520 45
2009-09-28 10:37:18 51°18.542 2°52.703 9 305 16 102520 45
2009-09-28 10:37:23 51°18.558 2°52.705 11.2 25 15.9 102520 43
2009-09-28 10:37:28 51°18.574 2°52.707 10.4 308 15.9 102520 43
2009-09-28 10:37:33 51°18.589 2°52.708 10.6 21 16 102520 44
2009-09-28 10:37:38 51°18.605 2°52.71 9.5 305 16 102520 44
2009-09-28 10:37:43 51°18.621 2°52.711 8.8 26 15.9 102520 43
2009-09-28 10:37:48 51°18.637 2°52.713 10.3 303 15.9 102520 43
2009-09-28 10:37:53 51°18.653 2°52.714 8.7 22 15.9 102520 42
2009-09-28 10:37:58 51°18.668 2°52.716 10.1 304 15.9 102520 42
2009-09-28 10:38:03 51°18.684 2°52.718 9.2 25 15.9 102510 44
2009-09-28 10:38:08 51°18.699 2°52.719 9.9 279 15.9 102510 44
2009-09-28 10:38:13 51°18.715 2°52.721 9.3 20 15.9 102520 43
2009-09-28 10:38:18 51°18.731 2°52.722 9.3 308 15.9 102520 43
2009-09-28 10:38:23 51°18.747 2°52.723 10.1 21 15.9 102520 44
2009-09-28 10:38:28 51°18.763 2°52.725 10 308 15.9 102520 44
2009-09-28 10:38:33 51°18.778 2°52.727 10.8 22 15.9 102520 45
2009-09-28 10:38:38 51°18.794 2°52.728 8.9 306 15.9 102520 45
2009-09-28 10:38:43 51°18.81 2°52.729 9 28 15.9 102520 45
2009-09-28 10:38:48 51°18.825 2°52.73 10.2 308 15.9 102520 45
2009-09-28 10:38:53 51°18.841 2°52.731 9.2 25 15.9 102520 43
2009-09-28 10:38:58 51°18.856 2°52.733 9 301 15.9 102520 43
2009-09-28 10:39:03 51°18.872 2°52.734 11.4 26 15.9 102520 42
2009-09-28 10:39:08 51°18.888 2°52.735 9.7 304 15.9 102520 42
2009-09-28 10:39:13 51°18.903 2°52.737 10.6 25 15.9 102520 45
2009-09-28 10:39:18 51°18.919 2°52.738 10.4 303 15.9 102520 45
2009-09-28 10:39:23 51°18.935 2°52.74 10.4 27 15.9 102530 42
2009-09-28 10:39:28 51°18.951 2°52.741 10.9 308 15.9 102530 42
2009-09-28 10:39:32 51°18.963 2°52.743 9.8 25 15.9 102520 44
2009-09-28 10:39:38 51°18.982 2°52.745 9.5 306 15.9 102520 44
2009-09-28 10:39:43 51°18.998 2°52.746 9.7 23 15.9 102530 43
2009-09-28 10:39:48 51°19.013 2°52.748 8.9 304 15.9 102530 43
2009-09-28 10:39:53 51°19.029 2°52.75 8.2 23 15.8 102530 45
2009-09-28 10:39:58 51°19.045 2°52.751 10.6 308 15.8 102530 45
2009-09-28 10:40:03 51°19.061 2°52.753 9.2 28 15.8 102520 44
2009-09-28 10:40:08 51°19.077 2°52.754 9.5 283 15.8 102520 44
2009-09-28 10:40:13 51°19.093 2°52.756 9.3 24 15.8 102520 42
2009-09-28 10:40:18 51°19.108 2°52.758 11.1 301 15.8 102520 42
2009-09-28 10:40:23 51°19.124 2°52.759 10.6 29 15.8 102530 45
2009-09-28 10:40:28 51°19.14 2°52.761 10.1 301 15.8 102530 45
2009-09-28 10:40:33 51°19.156 2°52.762 8.9 27 15.8 102530 44
2009-09-28 10:40:38 51°19.172 2°52.764 9.3 302 15.8 102530 44
2009-09-28 10:40:43 51°19.188 2°52.765 9.1 25 15.8 102520 42
2009-09-28 10:40:48 51°19.203 2°52.767 8.8 307 15.8 102520 42
2009-09-28 10:40:53 51°19.219 2°52.769 10 25 15.9 102530 45
2009-09-28 10:40:58 51°19.235 2°52.77 9.8 307 15.9 102530 45
2009-09-28 10:41:03 51°19.25 2°52.772 8.6 25 15.8 102530 41
2009-09-28 10:41:08 51°19.266 2°52.774 8.1 309 15.8 102530 41
2009-09-28 10:41:13 51°19.282 2°52.775 8.5 22 15.8 102530 45
2009-09-28 10:41:18 51°19.298 2°52.777 9.1 305 15.8 102530 45
2009-09-28 10:41:23 51°19.314 2°52.778 8.2 27 15.8 102530 44
2009-09-28 10:41:28 51°19.329 2°52.78 8.8 305 15.8 102530 44
2009-09-28 10:41:33 51°19.345 2°52.782 10.3 23 15.8 102530 46
2009-09-28 10:41:38 51°19.361 2°52.783 9.3 305 15.8 102530 46
2009-09-28 10:41:43 51°19.377 2°52.786 9 27 15.9 102530 45
2009-09-28 10:41:48 51°19.393 2°52.788 9.9 307 15.9 102530 45
2009-09-28 10:41:52 51°19.406 2°52.79 9.8 22 15.9 102530 42
2009-09-28 10:41:58 51°19.424 2°52.793 8.6 305 15.9 102530 42
2009-09-28 10:42:03 51°19.44 2°52.796 7.7 20 15.9 102530 45
2009-09-28 10:42:08 51°19.456 2°52.799 10.3 281 15.9 102530 45
2009-09-28 10:42:13 51°19.472 2°52.801 9.5 26 15.9 102530 46
2009-09-28 10:42:18 51°19.487 2°52.804 9.1 308 15.9 102530 46
2009-09-28 10:42:23 51°19.503 2°52.806 9.3 27 15.9 102530 43
2009-09-28 10:42:28 51°19.518 2°52.809 10.2 306 15.9 102530 43
2009-09-28 10:42:33 51°19.534 2°52.812 9 25 15.9 102530 46
2009-09-28 10:42:38 51°19.55 2°52.816 9.5 305 15.9 102530 46
2009-09-28 10:42:43 51°19.565 2°52.82 9.3 25 15.9 102530 45
2009-09-28 10:42:48 51°19.581 2°52.824 8.9 308 15.9 102530 45
2009-09-28 10:42:53 51°19.596 2°52.829 9.6 25 15.9 102530 42
2009-09-28 10:42:58 51°19.612 2°52.834 7.7 306 15.9 102530 42
2009-09-28 10:43:03 51°19.627 2°52.839 7.8 21 15.9 102530 43
2009-09-28 10:43:08 51°19.643 2°52.844 7.7 310 15.9 102530 43
2009-09-28 10:43:13 51°19.658 2°52.85 9 25 15.9 102540 46
2009-09-28 10:43:18 51°19.674 2°52.855 9.4 301 15.9 102540 46
2009-09-28 10:43:23 51°19.689 2°52.86 8.7 28 15.9 102540 45
2009-09-28 10:43:28 51°19.705 2°52.866 8.6 304 15.9 102540 45
2009-09-28 10:43:33 51°19.72 2°52.871 8.7 25 15.9 102540 44
2009-09-28 10:43:38 51°19.736 2°52.877 8.8 305 15.9 102540 44
2009-09-28 10:43:43 51°19.752 2°52.882 10.2 25 15.9 102540 44
2009-09-28 10:43:48 51°19.767 2°52.888 9.1 307 15.9 102540 44
2009-09-28 10:43:53 51°19.782 2°52.893 10.4 27 15.9 102540 45
2009-09-28 10:43:58 51°19.798 2°52.899 10.3 303 15.9 102540 45
2009-09-28 10:44:03 51°19.813 2°52.904 10 24 15.9 102530 44
2009-09-28 10:44:08 51°19.829 2°52.91 10.6 280 15.9 102530 44
2009-09-28 10:44:12 51°19.841 2°52.914 9.4 20 15.9 102540 46
2009-09-28 10:44:18 51°19.86 2°52.921 10 301 15.9 102540 46
2009-09-28 10:44:23 51°19.875 2°52.926 10.1 27 15.9 102530 42
2009-09-28 10:44:28 51°19.89 2°52.932 10.3 308 15.9 102530 42
2009-09-28 10:44:33 51°19.906 2°52.937 8.6 25 15.9 102530 44
2009-09-28 10:44:38 51°19.921 2°52.942 10.1 305 15.9 102530 44
2009-09-28 10:44:43 51°19.937 2°52.947 9.2 22 15.9 102540 42
2009-09-28 10:44:48 51°19.953 2°52.953 8.7 302 15.9 102540 42
2009-09-28 10:44:53 51°19.968 2°52.958 8.7 20 15.9 102530 44
2009-09-28 10:44:58 51°19.984 2°52.964 9 305 15.9 102530 44
2009-09-28 10:45:03 51°19.999 2°52.969 10.1 23 15.9 102540 45
2009-09-28 10:45:08 51°20.015 2°52.974 8.5 307 15.9 102540 45
2009-09-28 10:45:13 51°20.03 2°52.98 8.6 28 15.9 102530 45
2009-09-28 10:45:18 51°20.046 2°52.986 9 303 15.9 102530 45
2009-09-28 10:45:23 51°20.061 2°52.991 10.1 25 15.9 102530 42
2009-09-28 10:45:28 51°20.077 2°52.997 9.1 305 15.9 102530 42
2009-09-28 10:45:33 51°20.092 2°53.002 11.4 22 16 102540 46
2009-09-28 10:45:38 51°20.108 2°53.007 8.5 303 16 102540 46
2009-09-28 10:45:43 51°20.123 2°53.013 11.1 21 16 102530 42
2009-09-28 10:45:48 51°20.139 2°53.018 11.4 307 16 102530 42
2009-09-28 10:45:53 51°20.154 2°53.023 11.1 20 16 102540 46
2009-09-28 10:45:58 51°20.17 2°53.028 9.9 301 16 102540 46
2009-09-28 10:46:03 51°20.185 2°53.034 11 24 16 102530 42
2009-09-28 10:46:08 51°20.201 2°53.039 10.8 283 16 102530 42
2009-09-28 10:46:13 51°20.216 2°53.044 9.7 27 16 102530 44
2009-09-28 10:46:18 51°20.231 2°53.049 10.5 304 16 102530 44
2009-09-28 10:46:23 51°20.247 2°53.054 9.7 23 16 102530 44
2009-09-28 10:46:28 51°20.262 2°53.06 9.5 306 16 102530 44
2009-09-28 10:46:33 51°20.278 2°53.065 10.5 25 16 102530 45
2009-09-28 10:46:38 51°20.293 2°53.07 10.3 307 16 102530 45
2009-09-28 10:46:43 51°20.309 2°53.075 9.2 26 15.9 102540 41
2009-09-28 10:46:48 51°20.324 2°53.081 9.9 304 15.9 102540 41
2009-09-28 10:46:53 51°20.34 2°53.086 9.6 21 15.9 102530 44
2009-09-28 10:46:58 51°20.355 2°53.091 9.1 307 15.9 102530 44
2009-09-28 10:47:03 51°20.371 2°53.096 9.3 22 15.9 102520 42
2009-09-28 10:47:08 51°20.386 2°53.101 9.7 305 15.9 102520 42
2009-09-28 10:47:13 51°20.402 2°53.106 9.7 22 15.9 102530 46
2009-09-28 10:47:18 51°20.417 2°53.112 8.3 308 15.9 102530 46
2009-09-28 10:47:23 51°20.433 2°53.117 9.3 23 16 102530 42
2009-09-28 10:47:28 51°20.448 2°53.122 8.2 301 16 102530 42
2009-09-28 10:47:33 51°20.464 2°53.127 9.6 26 16 102530 44
2009-09-28 10:47:38 51°20.479 2°53.132 8.9 307 16 102530 44
2009-09-28 10:47:43 51°20.494 2°53.137 8.6 28 15.9 102530 41
2009-09-28 10:47:48 51°20.51 2°53.142 9.1 303 15.9 102530 41
2009-09-28 10:47:53 51°20.526 2°53.147 7.7 24 16 102530 43
2009-09-28 10:47:58 51°20.541 2°53.153 7.7 310 16 102530 43
2009-09-28 10:48:03 51°20.556 2°53.157 8.4 22 16 102530 42
2009-09-28 10:48:08 51°20.572 2°53.162 8.1 282 16 102530 42
2009-09-28 10:48:13 51°20.587 2°53.167 10 23 16 102530 46
2009-09-28 10:48:18 51°20.603 2°53.173 8.5 302 16 102530 46
2009-09-28 10:48:23 51°20.618 2°53.178 9.1 23 16 102530 42
2009-09-28 10:48:28 51°20.634 2°53.183 9 307 16 102530 42
2009-09-28 10:48:33 51°20.649 2°53.188 8.4 25 16 102540 44
2009-09-28 10:48:38 51°20.664 2°53.193 8.3 305 16 102540 44
2009-09-28 10:48:43 51°20.68 2°53.198 8.1 27 16.1 102530 46
2009-09-28 10:48:48 51°20.695 2°53.203 10.3 309 16.1 102530 46
2009-09-28 10:48:53 51°20.711 2°53.208 10.5 24 16.1 102530 42
2009-09-28 10:48:58 51°20.726 2°53.213 10.1 303 16.1 102530 42
2009-09-28 10:49:03 51°20.742 2°53.218 10.5 26 16.1 102530 46
2009-09-28 10:49:08 51°20.757 2°53.222 10.8 283 16.1 102530 46
2009-09-28 10:49:13 51°20.773 2°53.226 10.3 25 16.1 102530 46
2009-09-28 10:49:18 51°20.788 2°53.231 9.7 310 16.1 102530 46
2009-09-28 10:49:23 51°20.804 2°53.234 9.4 25 16.1 102520 45
2009-09-28 10:49:28 51°20.819 2°53.238 8.6 304 16.1 102520 45
2009-09-28 10:49:33 51°20.835 2°53.241 10.5 21 16 102520 42
2009-09-28 10:49:38 51°20.85 2°53.245 11 308 16 102520 42
2009-09-28 10:49:43 51°20.865 2°53.248 10.8 27 16 102520 46
2009-09-28 10:49:48 51°20.881 2°53.252 10.8 309 16 102520 46
2009-09-28 10:49:53 51°20.897 2°53.255 9.1 19 16.1 102520 42
2009-09-28 10:49:58 51°20.912 2°53.259 10.4 306 16.1 102520 42
2009-09-28 10:50:03 51°20.928 2°53.262 9.1 21 16 102520 43
2009-09-28 10:50:08 51°20.943 2°53.266 9.8 308 16 102520 43
2009-09-28 10:50:13 51°20.959 2°53.269 11.1 23 16 102520 45
2009-09-28 10:50:18 51°20.974 2°53.273 10.5 306 16 102520 45
2009-09-28 10:50:23 51°20.99 2°53.276 9 22 16 102520 46
2009-09-28 10:50:28 51°21.005 2°53.28 8.5 304 16 102520 46
2009-09-28 10:50:33 51°21.021 2°53.283 8.9 27 16 102520 45
2009-09-28 10:50:38 51°21.036 2°53.287 8.9 304 16 102520 45
2009-09-28 10:50:43 51°21.052 2°53.29 8 24 16 102520 46
2009-09-28 10:50:48 51°21.068 2°53.294 8 37 16 102520 46
2009-09-28 10:50:53 51°21.083 2°53.297 8.1 22 16 102520 42
2009-09-28 10:50:58 51°21.099 2°53.301 8.3 36 16 102520 42
2009-09-28 10:51:03 51°21.114 2°53.304 9.2 27 16 102520 46
2009-09-28 10:51:08 51°21.13 2°53.307 8.2 233 16 102520 46
2009-09-28 10:51:13 51°21.145 2°53.311 7.8 24 16 102520 45
2009-09-28 10:51:18 51°21.161 2°53.314 9.2 35 16 102520 45
2009-09-28 10:51:23 51°21.177 2°53.318 8.1 21 16 102530 42
2009-09-28 10:51:28 51°21.192 2°53.321 8.4 38 16 102530 42
2009-09-28 10:51:32 51°21.205 2°53.324 9.2 26 16 102520 42
2009-09-28 10:51:38 51°21.223 2°53.328 8.7 33 16 102520 42
2009-09-28 10:51:43 51°21.239 2°53.332 9.7 23 16 102520 45
2009-09-28 10:51:48 51°21.255 2°53.336 9.8 33 16 102520 45
2009-09-28 10:51:53 51°21.27 2°53.339 10 25 16 102520 45
2009-09-28 10:51:58 51°21.286 2°53.342 8.9 39 16 102520 45
2009-09-28 10:52:03 51°21.302 2°53.346 9.8 28 16 102520 45
2009-09-28 10:52:08 51°21.317 2°53.349 8.8 37 16 102520 45
2009-09-28 10:52:13 51°21.333 2°53.352 8.3 28 16 102520 45
2009-09-28 10:52:18 51°21.348 2°53.355 9.5 31 16 102520 45
2009-09-28 10:52:23 51°21.364 2°53.359 8.8 24 16 102520 44
2009-09-28 10:52:28 51°21.38 2°53.362 10.6 36 16 102520 44
2009-09-28 10:52:33 51°21.395 2°53.366 10.8 21 16 102520 42
2009-09-28 10:52:38 51°21.411 2°53.368 9.1 32 16 102520 42
2009-09-28 10:52:43 51°21.426 2°53.371 9.4 20 16 102520 46
2009-09-28 10:52:48 51°21.442 2°53.373 10.5 34 16 102520 46
2009-09-28 10:52:52 51°21.454 2°53.376 10.3 22 16 102520 43
2009-09-28 10:52:58 51°21.473 2°53.379 9.3 35 16 102520 43
2009-09-28 10:53:03 51°21.489 2°53.382 9.5 27 16 102520 44
2009-09-28 10:53:08 51°21.504 2°53.386 10.4 35 16 102520 44
2009-09-28 10:53:13 51°21.52 2°53.389 9.3 25 16 102520 46
2009-09-28 10:53:18 51°21.535 2°53.392 9.3 36 16 102520 46
2009-09-28 10:53:23 51°21.551 2°53.396 9.4 24 16 102520 46
2009-09-28 10:53:28 51°21.567 2°53.399 9.9 32 16 102520 46
2009-09-28 10:53:33 51°21.582 2°53.403 9.6 25 16 102520 45
2009-09-28 10:53:38 51°21.598 2°53.406 10.7 37 16 102520 45
2009-09-28 10:53:43 51°21.613 2°53.409 9.8 25 16 102520 43
2009-09-28 10:53:48 51°21.629 2°53.412 9.9 38 16 102520 43
2009-09-28 10:53:53 51°21.644 2°53.416 9.9 28 16 102520 42
2009-09-28 10:53:58 51°21.66 2°53.419 9.4 36 16 102520 42
2009-09-28 10:54:03 51°21.675 2°53.423 9.1 24 16 102520 43
2009-09-28 10:54:08 51°21.691 2°53.426 9.7 37 16 102520 43
2009-09-28 10:54:12 51°21.703 2°53.429 11 24 16 102520 45
2009-09-28 10:54:18 51°21.722 2°53.433 10.3 35 16 102520 45
2009-09-28 10:54:23 51°21.738 2°53.436 10.7 25 15.9 102520 43
2009-09-28 10:54:28 51°21.753 2°53.439 9.4 39 15.9 102520 43
2009-09-28 10:54:33 51°21.769 2°53.442 9.4 25 15.9 102520 45
2009-09-28 10:54:38 51°21.784 2°53.446 10.3 34 15.9 102520 45
2009-09-28 10:54:43 51°21.8 2°53.449 10.6 22 15.9 102520 43
2009-09-28 10:54:48 51°21.815 2°53.452 9.4 35 15.9 102520 43
2009-09-28 10:54:53 51°21.831 2°53.456 10.4 21 15.9 102520 45
2009-09-28 10:54:58 51°21.847 2°53.459 10.3 36 15.9 102520 45
2009-09-28 10:55:03 51°21.862 2°53.462 9.4 21 15.9 102520 43
2009-09-28 10:55:08 51°21.878 2°53.465 8.7 38 15.9 102520 43
2009-09-28 10:55:13 51°21.893 2°53.469 8.7 27 15.9 102520 46
2009-09-28 10:55:18 51°21.909 2°53.472 8.5 38 15.9 102520 46
2009-09-28 10:55:23 51°21.925 2°53.475 9.4 28 15.9 102520 46
2009-09-28 10:55:28 51°21.94 2°53.478 9.7 40 15.9 102520 46
2009-09-28 10:55:33 51°21.956 2°53.481 8.8 24 16 102530 45
2009-09-28 10:55:38 51°21.972 2°53.482 9.2 40 16 102530 45
2009-09-28 10:55:43 51°21.989 2°53.485 10.7 24 15.9 102530 43
2009-09-28 10:55:48 51°22.004 2°53.487 9.7 39 15.9 102530 43
2009-09-28 10:55:53 51°22.019 2°53.49 10.1 27 16 102530 46
2009-09-28 10:55:58 51°22.035 2°53.493 10.7 37 16 102530 46
2009-09-28 10:56:03 51°22.05 2°53.496 10.2 27 16 102530 43
2009-09-28 10:56:08 51°22.065 2°53.499 9.6 35 16 102530 43
2009-09-28 10:56:13 51°22.081 2°53.503 9.6 25 16 102520 46
2009-09-28 10:56:18 51°22.096 2°53.506 10.6 38 16 102520 46
2009-09-28 10:56:23 51°22.112 2°53.509 9.6 27 15.9 102520 42
2009-09-28 10:56:28 51°22.127 2°53.513 9.4 35 15.9 102520 42
2009-09-28 10:56:33 51°22.142 2°53.516 11 26 16 102520 45
2009-09-28 10:56:38 51°22.158 2°53.521 10 38 16 102520 45
2009-09-28 10:56:43 51°22.173 2°53.524 9.4 23 16 102530 42
2009-09-28 10:56:48 51°22.189 2°53.528 10 35 16 102530 42
2009-09-28 10:56:53 51°22.204 2°53.532 9.3 25 16 102520 44
2009-09-28 10:56:58 51°22.22 2°53.535 9.4 38 16 102520 44
2009-09-28 10:57:03 51°22.235 2°53.539 8.9 24 15.9 102520 46
2009-09-28 10:57:08 51°22.251 2°53.543 9.4 35 15.9 102520 46
2009-09-28 10:57:13 51°22.266 2°53.545 9.8 28 15.9 102510 42
2009-09-28 10:57:18 51°22.282 2°53.549 10.4 232 15.9 102510 42
2009-09-28 10:57:23 51°22.298 2°53.553 10.8 23 15.9 102530 43
2009-09-28 10:57:28 51°22.313 2°53.556 8.8 34 15.9 102530 43
2009-09-28 10:57:33 51°22.329 2°53.56 9.4 27 15.9 102520 46
2009-09-28 10:57:38 51°22.345 2°53.563 10.3 34 15.9 102520 46
2009-09-28 10:57:43 51°22.36 2°53.567 9.3 21 15.9 102530 44
2009-09-28 10:57:48 51°22.376 2°53.57 9.2 31 15.9 102530 44
2009-09-28 10:57:52 51°22.389 2°53.573 8.9 25 15.9 102520 42
2009-09-28 10:57:58 51°22.407 2°53.577 9.6 233 15.9 102520 42
2009-09-28 10:58:03 51°22.423 2°53.581 8.6 27 15.9 102520 44
2009-09-28 10:58:08 51°22.439 2°53.584 9.6 34 15.9 102520 44
2009-09-28 10:58:13 51°22.454 2°53.588 10.9 24 15.9 102520 42
2009-09-28 10:58:18 51°22.47 2°53.592 9.9 35 15.9 102520 42
2009-09-28 10:58:23 51°22.485 2°53.596 9.7 22 15.9 102520 46
2009-09-28 10:58:28 51°22.501 2°53.599 9.7 33 15.9 102520 46
2009-09-28 10:58:33 51°22.516 2°53.602 9.1 20 15.9 102520 46
2009-09-28 10:58:38 51°22.532 2°53.606 9.4 35 15.9 102520 46
2009-09-28 10:58:43 51°22.547 2°53.61 10.3 23 15.9 102520 42
2009-09-28 10:58:48 51°22.563 2°53.613 9.4 34 15.9 102520 42
2009-09-28 10:58:53 51°22.578 2°53.617 10.3 19 16 102520 45
2009-09-28 10:58:58 51°22.594 2°53.621 9.7 232 16 102520 45
2009-09-28 10:59:03 51°22.609 2°53.625 8.8 27 15.9 102520 46
2009-09-28 10:59:08 51°22.625 2°53.628 8.7 232 15.9 102520 46
2009-09-28 10:59:12 51°22.637 2°53.631 8.3 26 15.9 102520 45
2009-09-28 10:59:18 51°22.656 2°53.635 9.5 232 15.9 102520 45
2009-09-28 10:59:23 51°22.672 2°53.638 9.5 28 15.9 102520 45
2009-09-28 10:59:28 51°22.687 2°53.641 10.1 32 15.9 102520 45
2009-09-28 10:59:33 51°22.703 2°53.645 9.4 24 15.9 102520 45
2009-09-28 10:59:38 51°22.718 2°53.648 9.7 34 15.9 102520 45
2009-09-28 10:59:43 51°22.734 2°53.652 10 24 15.9 102520 46
2009-09-28 10:59:48 51°22.749 2°53.655 9.6 31 15.9 102520 46
2009-09-28 10:59:53 51°22.765 2°53.659 8.2 26 15.9 102520 44
2009-09-28 11:00:03 51°22.796 2°53.667 9.3 26 15.9 102520 44
2009-09-28 11:00:08 51°22.812 2°53.67 8.5 35 15.9 102520 44
2009-09-28 11:00:13 51°22.827 2°53.674 9.6 20 16 102520 42
2009-09-28 11:00:18 51°22.843 2°53.677 8.5 37 16 102520 42
2009-09-28 11:00:23 51°22.859 2°53.681 8.5 22 16 102520 43
2009-09-28 11:00:23 51°22.859 2°53.681 8.5 22 16 102520 43
2009-09-28 11:00:32 51°22.887 2°53.688 10.2 24 16 102520 46
2009-09-28 11:00:38 51°22.906 2°53.692 10 35 16 102520 46
2009-09-28 11:00:43 51°22.921 2°53.696 9.9 20 16 102510 45
2009-09-28 11:00:48 51°22.937 2°53.699 9.1 40 16 102510 45
2009-09-28 11:01:02 51°22.981 2°53.709 9.7 26 16 102510 42
2009-09-28 11:01:07 51°22.997 2°53.713 9.2 279 16 102510 42
2009-09-28 11:01:12 51°23.012 2°53.716 8.1 23 16 102510 44
2009-09-28 11:01:15 51°23.022 2°53.719 9.3 280 16 102510 44
2009-09-28 11:01:22 51°23.043 2°53.724 9.8 28 16 102510 41
2009-09-28 11:01:27 51°23.059 2°53.728 10.1 304 16 102510 41
2009-09-28 11:01:32 51°23.074 2°53.732 10.2 26 16 102510 42
2009-09-28 11:01:37 51°23.09 2°53.736 10.4 306 16 102510 42
2009-09-28 11:01:42 51°23.106 2°53.739 8.9 21 16 102510 45
2009-09-28 11:01:47 51°23.121 2°53.742 8.4 303 16 102510 45
2009-09-28 11:01:52 51°23.137 2°53.745 9.9 22 16 102510 42
2009-09-28 11:01:57 51°23.153 2°53.748 8.7 307 16 102510 42
2009-09-28 11:02:02 51°23.168 2°53.751 8.1 24 15.9 102510 45
2009-09-28 11:02:07 51°23.184 2°53.755 9 308 15.9 102510 45
2009-09-28 11:02:12 51°23.199 2°53.759 8.3 27 15.9 102510 45
2009-09-28 11:02:17 51°23.215 2°53.763 8.6 308 15.9 102510 45
2009-09-28 11:02:22 51°23.231 2°53.766 9.4 26 15.9 102510 42
2009-09-28 11:02:27 51°23.246 2°53.771 8.6 306 15.9 102510 42
2009-09-28 11:02:32 51°23.262 2°53.775 8.3 26 15.9 102520 45
2009-09-28 11:02:37 51°23.278 2°53.778 9.2 302 15.9 102520 45
2009-09-28 11:02:42 51°23.293 2°53.782 9.7 27 15.9 102510 42
2009-09-28 11:02:47 51°23.309 2°53.786 10.1 307 15.9 102510 42
2009-09-28 11:02:52 51°23.325 2°53.79 8.3 26 15.9 102510 45
2009-09-28 11:02:57 51°23.34 2°53.793 9.2 303 15.9 102510 45
2009-09-28 11:03:02 51°23.356 2°53.797 9.7 25 15.9 102510 46
2009-09-28 11:03:07 51°23.372 2°53.8 9.6 284 15.9 102510 46
2009-09-28 11:03:12 51°23.388 2°53.804 8.9 21 16 102510 43
2009-09-28 11:03:17 51°23.403 2°53.808 9.1 308 16 102510 43
2009-09-28 11:03:22 51°23.419 2°53.812 8.3 24 16 102510 43
2009-09-28 11:03:27 51°23.434 2°53.816 8.9 309 16 102510 43
2009-09-28 11:03:32 51°23.45 2°53.82 10.7 19 16 102510 46
2009-09-28 11:03:37 51°23.466 2°53.824 10 304 16 102510 46
2009-09-28 11:03:42 51°23.482 2°53.828 9.4 27 16 102510 42
2009-09-28 11:03:47 51°23.497 2°53.832 8.8 309 16 102510 42
2009-09-28 11:03:52 51°23.513 2°53.835 9.3 20 16 102510 42
2009-09-28 11:03:57 51°23.529 2°53.839 10.7 304 16 102510 42
2009-09-28 11:04:02 51°23.545 2°53.843 9 26 16 102510 46
2009-09-28 11:04:07 51°23.56 2°53.846 8.7 305 16 102510 46
2009-09-28 11:04:12 51°23.576 2°53.85 9.6 29 16 102510 46
2009-09-28 11:04:17 51°23.592 2°53.854 8.4 301 16 102510 46
2009-09-28 11:04:22 51°23.608 2°53.857 9.7 24 16 102510 42
2009-09-28 11:04:27 51°23.624 2°53.861 9.1 308 16 102510 42
2009-09-28 11:04:32 51°23.64 2°53.865 7.8 22 16 102510 42
2009-09-28 11:04:37 51°23.655 2°53.868 7.9 309 16 102510 42
2009-09-28 11:04:42 51°23.671 2°53.872 8.8 27 16 102510 42
2009-09-28 11:04:47 51°23.687 2°53.876 9.9 306 16 102510 42
2009-09-28 11:04:52 51°23.702 2°53.88 9.6 26 16 102510 42
2009-09-28 11:04:57 51°23.718 2°53.883 9.5 308 16 102510 42
2009-09-28 11:05:02 51°23.733 2°53.887 10.2 28 16 102510 45
2009-09-28 11:05:07 51°23.749 2°53.891 8.9 278 16 102510 45
2009-09-28 11:05:12 51°23.765 2°53.895 9.8 27 16 102510 42
2009-09-28 11:05:17 51°23.781 2°53.898 9 303 16 102510 42
2009-09-28 11:05:22 51°23.796 2°53.9 9.1 24 16 102510 45
2009-09-28 11:05:27 51°23.812 2°53.903 10.1 302 16 102510 45
2009-09-28 11:05:32 51°23.828 2°53.904 9.9 27 16 102510 42
2009-09-28 11:05:36 51°23.84 2°53.905 9.4 304 16 102510 42
2009-09-28 11:05:42 51°23.859 2°53.907 10.2 26 15.9 102500 44
2009-09-28 11:05:47 51°23.875 2°53.907 10 302 15.9 102500 44
2009-09-28 11:05:52 51°23.891 2°53.908 9.8 27 16 102510 46
2009-09-28 11:05:57 51°23.906 2°53.908 10.3 306 16 102510 46
2009-09-28 11:06:02 51°23.922 2°53.909 9.6 29 16 102500 42
2009-09-28 11:06:07 51°23.938 2°53.909 10.8 303 16 102500 42
2009-09-28 11:06:12 51°23.954 2°53.909 9.4 26 16 102500 44
2009-09-28 11:06:17 51°23.969 2°53.91 10.2 303 16 102500 44
2009-09-28 11:06:22 51°23.985 2°53.91 9.3 22 16 102500 45
2009-09-28 11:06:27 51°24.001 2°53.91 10.6 305 16 102500 45
2009-09-28 11:06:32 51°24.017 2°53.91 8.8 25 16 102500 46
2009-09-28 11:06:37 51°24.033 2°53.91 9.8 303 16 102500 46
2009-09-28 11:06:42 51°24.048 2°53.91 9.3 26 16 102500 45
2009-09-28 11:06:47 51°24.064 2°53.91 9.2 301 16 102500 45
2009-09-28 11:06:52 51°24.081 2°53.91 10.1 27 16 102500 43
2009-09-28 11:06:57 51°24.097 2°53.911 8.5 302 16 102500 43
2009-09-28 11:07:02 51°24.113 2°53.91 9.5 22 16 102500 46
2009-09-28 11:07:07 51°24.129 2°53.911 9.1 282 16 102500 46
2009-09-28 11:07:12 51°24.145 2°53.91 8.3 21 16 102500 43
2009-09-28 11:07:17 51°24.161 2°53.911 10.2 303 16 102500 43
2009-09-28 11:07:22 51°24.177 2°53.911 8.8 26 16 102500 45
2009-09-28 11:07:27 51°24.193 2°53.911 10.5 301 16 102500 45
2009-09-28 11:07:32 51°24.208 2°53.911 9.7 22 16 102500 42
2009-09-28 11:07:37 51°24.224 2°53.911 10.2 309 16 102500 42
2009-09-28 11:07:42 51°24.24 2°53.911 8.8 25 16 102500 43
2009-09-28 11:07:47 51°24.255 2°53.912 8.9 303 16 102500 43
2009-09-28 11:07:52 51°24.271 2°53.912 10.2 25 16 102510 46
2009-09-28 11:07:57 51°24.287 2°53.912 11.1 302 16 102510 46
2009-09-28 11:08:02 51°24.303 2°53.913 11 28 16 102500 41
2009-09-28 11:08:07 51°24.318 2°53.913 9.4 304 16 102500 41
2009-09-28 11:08:12 51°24.335 2°53.912 10.2 27 16 102500 43
2009-09-28 11:08:17 51°24.351 2°53.911 9.2 309 16 102500 43
2009-09-28 11:08:22 51°24.367 2°53.912 10.7 20 16 102500 43
2009-09-28 11:08:27 51°24.382 2°53.912 9.1 302 16 102500 43
2009-09-28 11:08:32 51°24.398 2°53.912 10.1 25 16 102500 42
2009-09-28 11:08:37 51°24.414 2°53.912 9.6 302 16 102500 42
2009-09-28 11:08:42 51°24.43 2°53.912 9.5 28 16 102500 42
2009-09-28 11:08:47 51°24.446 2°53.913 8.7 302 16 102500 42
2009-09-28 11:08:52 51°24.461 2°53.914 9.4 26 16 102490 43
2009-09-28 11:08:57 51°24.477 2°53.915 7.8 303 16 102490 43
2009-09-28 11:09:02 51°24.493 2°53.917 8.1 23 16 102500 42
2009-09-28 11:09:07 51°24.509 2°53.919 8.8 277 16 102500 42
2009-09-28 11:09:12 51°24.525 2°53.921 9.9 27 16 102500 46
2009-09-28 11:09:17 51°24.54 2°53.923 8.4 303 16 102500 46
2009-09-28 11:09:22 51°24.555 2°53.926 9.9 24 16 102500 42
2009-09-28 11:09:27 51°24.57 2°53.929 9 307 16 102500 42
2009-09-28 11:09:32 51°24.586 2°53.931 8.9 20 16 102500 42
2009-09-28 11:09:37 51°24.602 2°53.933 9.7 304 16 102500 42
2009-09-28 11:09:42 51°24.618 2°53.936 10.1 22 16 102490 46
2009-09-28 11:09:47 51°24.633 2°53.938 7.8 302 16 102490 46
2009-09-28 11:09:52 51°24.649 2°53.94 8.3 27 15.9 102500 42
2009-09-28 11:09:57 51°24.665 2°53.942 8.5 301 15.9 102500 42
2009-09-28 11:10:02 51°24.681 2°53.944 8.3 27 15.9 102500 42
2009-09-28 11:10:07 51°24.697 2°53.946 8.6 306 15.9 102500 42
2009-09-28 11:10:12 51°24.713 2°53.948 9.8 23 15.9 102490 45
2009-09-28 11:10:17 51°24.729 2°53.95 9.9 308 15.9 102490 45
2009-09-28 11:10:22 51°24.745 2°53.952 9.4 25 15.9 102500 45
2009-09-28 11:10:27 51°24.76 2°53.955 9.6 305 15.9 102500 45
2009-09-28 11:10:32 51°24.776 2°53.958 9.5 26 15.9 102490 45
2009-09-28 11:10:37 51°24.792 2°53.961 8.8 303 15.9 102490 45
2009-09-28 11:10:42 51°24.808 2°53.964 9.7 23 15.9 102490 41
2009-09-28 11:10:47 51°24.824 2°53.967 9 302 15.9 102490 41
2009-09-28 11:10:52 51°24.839 2°53.971 10 26 15.9 102490 42
2009-09-28 11:10:57 51°24.855 2°53.975 8.9 305 15.9 102490 42
2009-09-28 11:11:02 51°24.871 2°53.977 9.8 22 15.9 102490 44
2009-09-28 11:11:07 51°24.887 2°53.981 9.5 280 15.9 102490 44
2009-09-28 11:11:12 51°24.903 2°53.985 9.7 25 15.9 102490 45
2009-09-28 11:11:17 51°24.919 2°53.987 9.5 306 15.9 102490 45
2009-09-28 11:11:22 51°24.935 2°53.991 9.5 25 15.9 102490 46
2009-09-28 11:11:27 51°24.951 2°53.993 10 307 15.9 102490 46
2009-09-28 11:11:32 51°24.967 2°53.996 8.6 25 15.9 102490 43
2009-09-28 11:11:37 51°24.983 2°53.999 8.3 308 15.9 102490 43
2009-09-28 11:11:42 51°24.999 2°54.002 8.6 26 16 102490 45
2009-09-28 11:11:47 51°25.014 2°54.005 8.6 307 16 102490 45
2009-09-28 11:11:52 51°25.031 2°54.008 9 26 15.9 102480 42
2009-09-28 11:11:57 51°25.046 2°54.012 8.8 306 15.9 102480 42
2009-09-28 11:12:02 51°25.062 2°54.015 8.9 20 16 102480 46
2009-09-28 11:12:07 51°25.078 2°54.018 9.5 302 16 102480 46
2009-09-28 11:12:12 51°25.095 2°54.021 8.2 21 16 102490 46
2009-09-28 11:12:17 51°25.111 2°54.024 9.7 304 16 102490 46
2009-09-28 11:12:22 51°25.127 2°54.027 8.6 315 16 102490 46
2009-09-28 11:12:27 51°25.143 2°54.031 9.8 308 16 102490 46
2009-09-28 11:12:32 51°25.159 2°54.034 8.9 27 16 102490 44
2009-09-28 11:12:36 51°25.172 2°54.037 10.3 304 16 102490 44
2009-09-28 11:12:42 51°25.191 2°54.041 9.3 25 16 102490 42
2009-09-28 11:12:47 51°25.207 2°54.044 10 306 16 102490 42
2009-09-28 11:12:52 51°25.223 2°54.047 9.2 24 16 102490 45
2009-09-28 11:12:57 51°25.239 2°54.05 9.2 304 16 102490 45
2009-09-28 11:13:02 51°25.254 2°54.053 10.2 23 16 102490 43
2009-09-28 11:13:07 51°25.27 2°54.056 10.7 279 16 102490 43
2009-09-28 11:13:12 51°25.286 2°54.059 9.9 26 15.9 102490 43
2009-09-28 11:13:17 51°25.302 2°54.062 8.9 309 15.9 102490 43
2009-09-28 11:13:22 51°25.318 2°54.065 9.2 23 15.9 102490 41
2009-09-28 11:13:27 51°25.334 2°54.068 9.6 307 15.9 102490 41
2009-09-28 11:13:32 51°25.35 2°54.071 10.2 25 15.9 102480 44
2009-09-28 11:13:37 51°25.365 2°54.074 8.7 302 15.9 102480 44
2009-09-28 11:13:42 51°25.381 2°54.078 10.3 27 15.9 102490 45
2009-09-28 11:13:47 51°25.397 2°54.081 10.4 303 15.9 102490 45
2009-09-28 11:13:52 51°25.413 2°54.084 9.4 28 15.9 102500 43
2009-09-28 11:13:57 51°25.428 2°54.088 10.6 300 15.9 102500 43
2009-09-28 11:14:02 51°25.444 2°54.091 10.4 25 15.9 102500 42
2009-09-28 11:14:07 51°25.46 2°54.094 10.8 309 15.9 102500 42
2009-09-28 11:14:12 51°25.476 2°54.098 9.4 26 15.9 102500 42
2009-09-28 11:14:17 51°25.492 2°54.101 10.8 309 15.9 102500 42
2009-09-28 11:14:22 51°25.507 2°54.104 9.6 25 15.9 102500 46
2009-09-28 11:14:27 51°25.523 2°54.107 9.3 305 15.9 102500 46
2009-09-28 11:14:32 51°25.539 2°54.11 10.6 26 15.9 102500 46
2009-09-28 11:14:37 51°25.554 2°54.113 10.5 304 15.9 102500 46
2009-09-28 11:14:42 51°25.57 2°54.116 9.4 21 16 102500 44
2009-09-28 11:14:47 51°25.586 2°54.119 9.8 302 16 102500 44
2009-09-28 11:14:52 51°25.601 2°54.122 10.8 28 15.9 102500 45
2009-09-28 11:14:57 51°25.617 2°54.125 8.6 305 15.9 102500 45
2009-09-28 11:15:02 51°25.633 2°54.127 10 26 15.9 102500 45
2009-09-28 11:15:07 51°25.648 2°54.13 10.3 278 15.9 102500 45
2009-09-28 11:15:12 51°25.664 2°54.133 9.4 25 16 102500 46
2009-09-28 11:15:17 51°25.679 2°54.136 10.5 306 16 102500 46
2009-09-28 11:15:22 51°25.695 2°54.139 10.8 26 16 102490 44
2009-09-28 11:15:27 51°25.71 2°54.142 10.2 309 16 102490 44
2009-09-28 11:15:32 51°25.726 2°54.145 8.6 25 16 102500 44
2009-09-28 11:15:37 51°25.742 2°54.148 10.3 305 16 102500 44
2009-09-28 11:15:42 51°25.757 2°54.152 8.8 26 16 102500 42
2009-09-28 11:15:47 51°25.773 2°54.154 10 308 16 102500 42
2009-09-28 11:15:52 51°25.788 2°54.158 8.5 21 16 102510 45
2009-09-28 11:15:56 51°25.801 2°54.16 8.2 307 16 102510 45
2009-09-28 11:16:02 51°25.819 2°54.164 9.4 24 16 102500 43
2009-09-28 11:16:07 51°25.835 2°54.167 10.1 304 16 102500 43
2009-09-28 11:16:12 51°25.85 2°54.169 8.9 23 15.9 102510 46
2009-09-28 11:16:17 51°25.866 2°54.172 9.7 302 15.9 102510 46
2009-09-28 11:16:22 51°25.881 2°54.175 9.2 27 15.9 102510 42
2009-09-28 11:16:27 51°25.897 2°54.178 10.8 308 15.9 102510 42
2009-09-28 11:16:32 51°25.913 2°54.181 12.2 23 15.9 102510 42
2009-09-28 11:16:37 51°25.928 2°54.184 11.7 303 15.9 102510 42
2009-09-28 11:16:42 51°25.944 2°54.186 11.8 25 15.9 102510 42
2009-09-28 11:16:47 51°25.959 2°54.189 11.3 302 15.9 102510 42
2009-09-28 11:16:52 51°25.975 2°54.192 10 25 16 102510 45
2009-09-28 11:16:57 51°25.991 2°54.194 9.8 303 16 102510 45
2009-09-28 11:17:02 51°26.006 2°54.197 9.5 29 15.9 102510 44
2009-09-28 11:17:07 51°26.022 2°54.2 9.4 284 15.9 102510 44
2009-09-28 11:17:12 51°26.037 2°54.202 8.2 24 15.9 102500 43
2009-09-28 11:17:17 51°26.053 2°54.206 8.2 307 15.9 102500 43
2009-09-28 11:17:22 51°26.069 2°54.209 9.3 25 15.9 102500 46
2009-09-28 11:17:27 51°26.084 2°54.212 8.2 303 15.9 102500 46
2009-09-28 11:17:32 51°26.1 2°54.214 8.7 22 15.9 102500 45
2009-09-28 11:17:37 51°26.115 2°54.216 8.6 308 15.9 102500 45
2009-09-28 11:17:42 51°26.131 2°54.219 10.3 25 15.9 102500 45
2009-09-28 11:17:47 51°26.146 2°54.222 9.6 308 15.9 102500 45
2009-09-28 11:17:52 51°26.162 2°54.225 9.6 24 15.9 102510 42
2009-09-28 11:17:57 51°26.177 2°54.229 11 307 15.9 102510 42
2009-09-28 11:18:02 51°26.192 2°54.231 10.6 22 15.9 102510 44
2009-09-28 11:18:07 51°26.208 2°54.235 9.1 309 15.9 102510 44
2009-09-28 11:18:12 51°26.223 2°54.238 9.8 25 15.9 102510 45
2009-09-28 11:18:17 51°26.239 2°54.242 10.3 305 15.9 102510 45
2009-09-28 11:18:22 51°26.254 2°54.244 10 21 15.9 102510 42
2009-09-28 11:18:27 51°26.27 2°54.247 9.7 304 15.9 102510 42
2009-09-28 11:18:32 51°26.286 2°54.25 9.7 28 15.9 102510 42
2009-09-28 11:18:37 51°26.301 2°54.253 9.2 308 15.9 102510 42
2009-09-28 11:18:42 51°26.317 2°54.257 10 25 15.9 102510 41
2009-09-28 11:18:47 51°26.332 2°54.259 9.7 303 15.9 102510 41
2009-09-28 11:18:52 51°26.348 2°54.263 9.5 23 15.9 102510 43
2009-09-28 11:18:57 51°26.363 2°54.265 9.3 304 15.9 102510 43
2009-09-28 11:19:02 51°26.379 2°54.269 11 19 15.9 102510 42
2009-09-28 11:19:07 51°26.394 2°54.272 9.3 282 15.9 102510 42
2009-09-28 11:19:12 51°26.41 2°54.275 8.1 25 15.9 102510 45
2009-09-28 11:19:17 51°26.425 2°54.277 9.2 309 15.9 102510 45
2009-09-28 11:19:22 51°26.441 2°54.281 9.2 26 15.9 102500 42
2009-09-28 11:19:27 51°26.457 2°54.283 9.5 308 15.9 102500 42
2009-09-28 11:19:32 51°26.472 2°54.287 8.5 28 15.9 102500 45
2009-09-28 11:19:37 51°26.488 2°54.289 9.2 307 15.9 102500 45
2009-09-28 11:19:42 51°26.503 2°54.292 9.4 24 15.9 102500 44
2009-09-28 11:19:47 51°26.519 2°54.295 10.4 309 15.9 102500 44
2009-09-28 11:19:52 51°26.535 2°54.298 8.5 27 15.9 102500 45
2009-09-28 11:19:57 51°26.55 2°54.3 9.2 303 15.9 102500 45
2009-09-28 11:20:02 51°26.566 2°54.303 9.5 316 15.9 102500 42
2009-09-28 11:20:07 51°26.581 2°54.306 9.9 305 15.9 102500 42
2009-09-28 11:20:12 51°26.597 2°54.308 9.1 315 15.9 102500 45
2009-09-28 11:20:17 51°26.612 2°54.311 8.2 302 15.9 102500 45
2009-09-28 11:20:22 51°26.628 2°54.314 9.7 315 15.9 102500 43
2009-09-28 11:20:27 51°26.643 2°54.317 8.7 303 15.9 102500 43
2009-09-28 11:20:32 51°26.659 2°54.319 8.3 27 15.9 102500 45
2009-09-28 11:20:37 51°26.674 2°54.322 9.5 303 15.9 102500 45
2009-09-28 11:20:42 51°26.69 2°54.326 10.1 24 15.9 102500 44
2009-09-28 11:20:47 51°26.706 2°54.328 8.6 302 15.9 102500 44
2009-09-28 11:20:52 51°26.722 2°54.332 8.4 26 15.9 102500 42
2009-09-28 11:20:57 51°26.737 2°54.335 8.9 309 15.9 102500 42
2009-09-28 11:21:02 51°26.753 2°54.338 9.3 23 15.9 102500 46
2009-09-28 11:21:07 51°26.768 2°54.342 8.7 283 15.9 102500 46
2009-09-28 11:21:12 51°26.784 2°54.345 8.9 25 15.9 102500 42
2009-09-28 11:21:16 51°26.796 2°54.348 10.4 302 15.9 102500 42